Location: Exeidioux
(45.6312°N, 1.6819°E)
Time: 13:16:52
(UTC+00:00)

Cosmos 1844 - Pass Details

Date: 03 March 2021
Orbit: 822 x 868 km, 70.9° (Epoch: 15 April)

Event Time Altitude Azimuth Distance (km) Brightness Sun altitude
Rises 18:33:31 0° 337° (NNW) 3,460 7.2 -9.6°
Reaches altitude 10° 18:36:08 10° 345° (NNW) 2,516 6.4 -10.1°
Maximum altitude 18:41:37 42° 56° (NE) 1,208 4.2 -11.0°
Enters shadow 18:47:00 10° 126° (SE) 2,474 5.6 -12.0°
